DW5640 Weather Reports


time (UTC)temp
F
wind
direction
speed
knots
gust
knots
rain 1hr
in
rain 24hr
in
rain mn
in
humidity
%
barometer
mb
20200803143438 61 351 5.2 8.7 0.00 0.10 0.00 87 1017.8
20200803142931 61 319 5.2 7.8 0.00 0.10 0.00 87 1017.9
20200803142442 61 355 5.2 7.8 0.00 0.10 0.00 87 1017.8
20200803141937 61 329 3.5 7.8 0.00 0.10 0.00 87 1017.8
20200803141427 61 355 3.5 7.8 0.00 0.10 0.00 88 1017.7
20200803140926 61 348 2.6 8.7 0.00 0.10 0.00 88 1017.6
20200803140439 60 355 5.2 8.7 0.00 0.10 0.00 87 1017.7
20200803135935 60 339 3.5 6.1 0.00 0.10 0.00 88 1017.7
20200803135425 60 355 4.3 7.0 0.00 0.10 0.00 88 1017.7
20200803134923 61 317 3.5 7.8 0.00 0.10 0.00 88 1017.6
20200803134433 60 10 5.2 7.8 0.00 0.10 0.00 88 1017.6
20200803133926 61 322 4.3 7.8 0.00 0.10 0.00 88 1017.4
20200803133438 61 321 5.2 7.8 0.00 0.10 0.00 89 1017.4
20200803132930 60 360 4.3 7.0 0.00 0.10 0.00 89 1017.3
20200803132420 60 5 4.3 7.8 0.00 0.10 0.00 89 1017.3
20200803131933 60 11 4.3 7.8 0.00 0.10 0.00 89 1017.3
20200803131427 60 346 4.3 7.0 0.00 0.10 0.00 89 1017.2
20200803130923 60 360 4.3 8.7 0.00 0.10 0.00 89 1017.2
20200803130433 60 360 5.2 8.7 0.00 0.10 0.00 89 1017.2
20200803125929 61 5 4.3 7.8 0.00 0.10 0.00 90 1017.2
20200803125440 60 355 3.5 7.8 0.00 0.10 0.00 89 1017.2
20200803124930 60 5 3.5 7.8 0.00 0.10 0.00 89 1017.1
20200803124439 60 18 5.2 7.8 0.00 0.10 0.00 89 1017.0
20200803123936 60 11 3.5 7.8 0.00 0.10 0.00 90 1016.9
20200803123430 60 347 3.5 8.7 0.00 0.10 0.00 90 1017.0
20200803122925 60 5 4.3 8.7 0.00 0.10 0.00 90 1016.9
20200803122437 60 329 3.5 5.2 0.00 0.10 0.00 90 1016.9
20200803121931 60 345 2.6 6.1 0.00 0.10 0.00 90 1016.9
20200803121438 60 351 4.3 7.8 0.00 0.10 0.00 90 1016.9
20200803120921 60 340 4.3 7.8 0.00 0.10 0.00 90 1016.8
20200803120433 60 355 4.3 7.0 0.00 0.10 0.00 90 1016.7
20200803115927 60 347 3.5 5.2 0.00 0.10 0.00 90 1016.6
20200803115422 60 360 2.6 6.1 0.00 0.10 0.00 91 1016.7
20200803114939 60 330 3.5 7.0 0.00 0.10 0.00 91 1016.7
20200803114429 60 19 5.2 7.0 0.00 0.10 0.00 91 1016.7
20200803113943 60 360 2.6 7.0 0.00 0.10 0.00 91 1016.7
20200803113433 60 9 3.5 7.0 0.00 0.10 0.00 91 1016.7
20200803112926 60 345 2.6 6.1 0.00 0.10 0.00 91 1016.6
20200803112435 60 342 3.5 7.0 0.00 0.10 0.00 91 1016.6
20200803111931 60 355 3.5 8.7 0.00 0.10 0.00 91 1016.6
20200803111423 60 360 4.3 6.1 0.00 0.10 0.00 91 1016.6
20200803110939 60 355 3.5 6.1 0.00 0.10 0.00 91 1016.6
20200803110427 60 355 3.5 6.1 0.00 0.10 0.00 91 1016.5
20200803105941 60 321 3.5 6.1 0.00 0.10 0.00 91 1016.5
20200803105431 60 344 4.3 7.8 0.00 0.10 0.00 92 1016.4
20200803104926 60 22 3.5 6.1 0.00 0.10 0.00 92 1016.4
20200803104438 60 347 2.6 6.1 0.00 0.10 0.00 92 1016.3
20200803103934 60 360 3.5 7.0 0.00 0.10 0.00 92 1016.3
20200803103424 60 13 2.6 7.8 0.00 0.10 0.00 92 1016.2
20200803102938 60 5 5.2 8.7 0.00 0.10 0.00 92 1016.1
20200803102431 60 340 5.2 8.7 0.00 0.10 0.00 92 1016.1
20200803101929 60 5 2.6 7.8 0.00 0.10 0.00 92 1016.1
20200803101443 60 324 3.5 10.4 0.00 0.10 0.00 92 1016.1
20200803100936 60 5 5.2 10.4 0.00 0.10 0.00 92 1016.0
20200803100428 60 322 5.2 9.6 0.00 0.10 0.00 92 1016.0
20200803095942 60 328 5.2 10.4 0.00 0.10 0.00 92 1015.9
20200803095429 61 5 4.3 10.4 0.00 0.10 0.00 91 1015.8
20200803094922 61 350 4.3 11.3 0.00 0.10 0.00 91 1015.8
20200803094435 61 296 5.2 11.3 0.00 0.10 0.00 91 1015.8
20200803093929 61 331 5.2 9.6 0.00 0.10 0.00 91 1015.6
20200803093439 61 355 4.3 9.6 0.00 0.10 0.00 91 1015.6
20200803092935 61 11 5.2 9.6 0.00 0.10 0.00 91 1015.6
20200803092428 61 360 6.1 9.6 0.00 0.10 0.00 91 1015.6
20200803091923 61 360 5.2 9.6 0.00 0.10 0.00 91 1015.5
20200803091443 61 12 6.1 12.2 0.00 0.10 0.00 91 1015.4
20200803090928 61 5 6.1 13.9 0.00 0.10 0.00 91 1015.3
20200803090440 61 5 7.8 13.9 0.00 0.10 0.00 91 1015.2
20200803085934 61 22 7.0 12.2 0.00 0.10 0.00 91 1015.2
20200803085440 62 347 7.0 9.6 0.00 0.10 0.00 91 1015.2
20200803084934 62 5 5.2 10.4 0.00 0.10 0.00 91 1015.2
20200803084429 62 5 6.1 9.6 0.00 0.10 0.00 92 1015.2
20200803083942 62 350 4.3 7.0 0.00 0.10 0.00 92 1015.2
20200803083432 62 355 3.5 5.2 0.00 0.10 0.00 92 1015.2
20200803082930 62 351 3.5 5.2 0.00 0.10 0.00 92 1015.2
20200803082440 62 319 2.6 5.2 0.00 0.10 0.00 92 1015.2
20200803081935 62 349 3.5 5.2 0.00 0.10 0.00 92 1015.2
20200803081442 62 348 3.5 6.1 0.00 0.10 0.00 92 1015.2
20200803080936 62 9 3.5 6.1 0.00 0.10 0.00 92 1015.2
20200803080423 62 12 3.5 7.0 0.00 0.10 0.00 92 1015.3
20200803075936 62 9 3.5 7.0 0.00 0.10 0.00 92 1015.2
20200803075425 62 5 3.5 6.1 0.00 0.10 0.00 91 1015.2
20200803074920 62 355 2.6 6.1 0.00 0.10 0.00 91 1015.2
20200803074432 62 340 4.3 9.6 0.00 0.10 0.00 91 1015.1
20200803073928 62 324 3.5 7.0 0.00 0.10 0.00 91 1015.1
20200803073422 62 355 3.5 7.8 0.00 0.10 0.00 91 1015.0
20200803072941 62 348 5.2 8.7 0.00 0.10 0.00 91 1015.0
20200803072431 62 327 4.3 10.4 0.00 0.10 0.00 91 1015.0
20200803071925 63 344 6.1 10.4 0.00 0.10 0.00 91 1015.1
20200803071437 63 360 5.2 10.4 0.00 0.10 0.00 92 1015.0
20200803070933 63 351 6.1 10.4 0.00 0.10 0.00 92 1014.9
20200803070423 63 318 6.1 9.6 0.00 0.10 0.00 92 1014.9
20200803065938 63 338 4.3 8.7 0.00 0.10 0.00 93 1014.8
20200803065428 63 342 4.3 7.0 0.00 0.10 0.00 93 1014.9
20200803064925 63 355 3.5 7.0 0.00 0.10 0.00 93 1015.0
20200803064434 63 342 3.5 6.1 0.00 0.10 0.00 92 1015.0
20200803063931 63 346 3.5 7.0 0.00 0.10 0.00 92 1015.0
20200803063426 63 348 3.5 7.0 0.00 0.10 0.00 92 1015.0
20200803062924 63 331 3.5 6.1 0.00 0.10 0.00 92 1014.9
20200803062434 63 343 3.5 6.1 0.00 0.10 0.00 92 1015.0
20200803061928 63 347 2.6 5.2 0.00 0.10 0.00 92 1015.0
20200803061439 63 303 2.6 6.1 0.00 0.10 0.00 92 1015.1
20200803060934 63 355 3.5 6.1 0.00 0.10 0.00 92 1015.0
20200803060424 63 14 4.3 7.0 0.00 0.10 0.00 92 1015.1
20200803055920 63 325 3.5 7.0 0.00 0.10 0.00 92 1015.1
20200803055433 63 337 3.5 7.0 0.00 0.10 0.00 92 1015.1
20200803054928 63 303 3.5 6.1 0.00 0.10 0.00 92 1015.0
20200803054421 63 336 3.5 7.8 0.00 0.10 0.00 92 1015.0
20200803053939 63 349 4.3 9.6 0.00 0.10 0.00 92 1015.1
20200803053429 63 326 5.2 9.6 0.00 0.10 0.00 92 1015.1
20200803052931 63 300 4.3 7.0 0.00 0.10 0.00 92 1015.1
20200803052442 63 325 3.5 6.1 0.00 0.10 0.00 92 1015.0
20200803051937 63 339 2.6 6.1 0.00 0.10 0.00 92 1015.1
20200803051429 63 311 2.6 6.1 0.00 0.10 0.00 92 1014.9
20200803050928 63 309 2.6 6.1 0.00 0.10 0.00 91 1014.9
20200803050437 63 360 2.6 6.1 0.00 0.10 0.00 91 1014.9
20200803045929 63 355 2.6 6.1 0.00 0.10 0.10 91 1014.8
20200803045438 64 360 2.6 6.1 0.00 0.10 0.10 91 1014.8
20200803044931 64 336 2.6 6.1 0.00 0.10 0.10 91 1014.7
20200803044440 64 347 2.6 6.1 0.00 0.10 0.10 90 1014.7
20200803043934 64 346 3.5 6.1 0.00 0.10 0.10 92 1014.7
20200803043426 64 337 3.5 7.8 0.00 0.10 0.10 90 1014.8
20200803042940 64 323 3.5 7.8 0.00 0.10 0.10 90 1014.8
20200803042429 65 340 2.6 6.1 0.00 0.10 0.10 90 1014.8
20200803041924 65 345 2.6 7.0 0.00 0.10 0.10 90 1014.8
20200803041433 65 316 3.5 7.0 0.00 0.10 0.10 90 1014.8
20200803040929 65 311 3.5 7.8 0.00 0.10 0.10 90 1014.8
20200803040441 65 319 3.5 7.8 0.00 0.10 0.10 90 1014.8
20200803035936 65 336 1.7 5.2 0.00 0.10 0.10 90 1014.7
20200803035430 65 343 2.6 5.2 0.00 0.10 0.10 90 1014.6
20200803034930 65 344 2.6 6.1 0.00 0.10 0.10 90 1014.5
20200803034423 65 335 3.5 6.1 0.00 0.10 0.10 90 1014.5
20200803033941 65 333 3.5 6.1 0.00 0.10 0.10 90 1014.4
20200803033428 65 310 2.6 6.1 0.00 0.10 0.10 90 1014.3
20200803032922 65 304 2.6 6.1 0.00 0.10 0.10 89 1014.3
20200803032435 65 312 2.6 6.1 0.00 0.10 0.10 89 1014.3
20200803031930 65 286 4.3 6.1 0.00 0.10 0.10 89 1014.3
20200803031443 66 314 4.3 6.1 0.00 0.10 0.10 89 1014.2
20200803030937 66 310 3.5 5.2 0.00 0.10 0.10 89 1014.3
20200803030442 66 312 2.6 4.3 0.00 0.10 0.10 88 1014.3
20200803025935 66 329 2.6 4.3 0.00 0.10 0.10 88 1014.3
20200803025427 66 315 2.6 4.3 0.00 0.10 0.10 88 1014.3
20200803024940 66 306 2.6 4.3 0.00 0.10 0.10 88 1014.3
20200803024430 66 323 2.6 5.2 0.00 0.10 0.10 87 1014.3
20200803023927 66 312 3.5 5.2 0.00 0.10 0.10 87 1014.2
20200803023442 67 315 2.6 4.3 0.00 0.10 0.10 87 1014.2
20200803022935 67 324 2.6 4.3 0.00 0.10 0.10 86 1014.2
20200803022424 67 300 2.6 5.2 0.00 0.10 0.10 86 1014.2
20200803021942 67 304 2.6 5.2 0.00 0.10 0.10 85 1014.2
20200803021430 68 288 3.5 6.1 0.00 0.10 0.10 85 1014.2
20200803020929 68 311 4.3 6.1 0.00 0.10 0.10 85 1014.0
20200803020436 68 306 3.5 6.1 0.00 0.10 0.10 84 1014.0
20200803015929 68 306 3.5 7.0 0.00 0.10 0.10 84 1014.0
20200803015437 68 297 4.3 7.0 0.00 0.10 0.10 83 1014.0
20200803014930 68 309 3.5 6.1 0.00 0.10 0.10 84 1014.0
20200803014422 69 307 3.5 6.1 0.00 0.10 0.10 83 1014.0
20200803013936 69 294 2.6 6.1 0.00 0.10 0.10 83 1013.9
20200803013427 69 300 3.5 6.1 0.00 0.10 0.10 82 1013.8
20200803012921 70 305 3.5 6.1 0.00 0.10 0.10 81 1013.8
20200803012434 70 297 4.3 6.1 0.00 0.10 0.10 81 1013.8
20200803011925 70 298 3.5 7.8 0.00 0.10 0.10 81 1013.8
20200803011433 70 311 2.6 7.8 0.00 0.10 0.10 81 1013.7
20200803010929 71 317 3.5 7.8 0.00 0.10 0.10 81 1013.7
20200803010423 71 299 1.7 5.2 0.00 0.10 0.10 80 1013.7
20200803005939 71 303 3.5 5.2 0.00 0.10 0.10 79 1013.5
20200803005428 72 315 3.5 6.1 0.00 0.10 0.10 78 1013.4
20200803004922 72 322 3.5 7.0 0.00 0.10 0.10 77 1013.4
20200803004437 72 297 4.3 7.0 0.00 0.10 0.10 76 1013.2
20200803003934 73 298 4.3 7.8 0.00 0.10 0.10 76 1013.2
20200803003426 73 305 4.3 7.8 0.00 0.10 0.10 75 1013.1
20200803002925 73 319 5.2 7.8 0.00 0.10 0.10 75 1013.0
20200803002438 74 311 3.5 7.0 0.00 0.10 0.10 76 1012.9
20200803001935 74 327 3.5 7.8 0.00 0.10 0.10 74 1012.9
20200803001423 74 319 6.1 8.7 0.00 0.10 0.10 73 1012.8
20200803000941 74 314 6.1 9.6 0.00 0.10 0.10 72 1012.7
20200803000431 75 309 7.0 9.6 0.00 0.10 0.10 71 1012.7
20200802235926 75 308 3.5 8.7 0.00 0.10 0.10 75 1012.7
20200802235439 75 360 3.5 8.7 0.00 0.10 0.10 76 1012.5
20200802234933 75 355 4.3 8.7 0.00 0.10 0.10 76 1012.5
20200802234441 74 327 3.5 10.4 0.00 0.10 0.10 76 1012.5
20200802233936 75 306 5.2 11.3 0.00 0.10 0.10 75 1012.5
20200802233423 76 314 7.0 11.3 0.00 0.10 0.10 74 1012.4
20200802232939 76 302 3.5 7.8 0.00 0.10 0.10 77 1012.4
20200802232427 76 318 1.7 7.0 0.00 0.10 0.10 81 1012.2
20200802231923 75 5 4.3 7.0 0.00 0.10 0.10 81 1012.1
20200802231435 75 315 2.6 6.1 0.00 0.10 0.10 83 1012.1
20200802230929 74 299 3.5 6.1 0.00 0.10 0.10 83 1012.0
20200802230443 74 292 2.6 4.3 0.00 0.10 0.10 86 1012.0
20200802225936 73 304 2.6 3.5 0.00 0.10 0.10 86 1011.9
20200802225423 72 302 1.7 3.5 0.00 0.10 0.10 87 1012.0
20200802224923 72 272 1.7 3.5 0.00 0.10 0.10 86 1012.0
20200802224430 72 277 2.6 3.5 0.00 0.10 0.10 86 1012.1
20200802223925 73 281 0.9 3.5 0.00 0.10 0.10 86 1012.0
20200802223434 73 281 1.7 4.3 0.00 0.10 0.10 86 1012.0
20200802222927 73 275 2.6 6.1 0.00 0.10 0.10 86 1012.0
20200802222436 73 276 3.5 6.1 0.00 0.10 0.10 85 1011.9
20200802221930 73 271 2.6 6.1 0.00 0.10 0.10 86 1012.0
20200802221438 73 269 4.3 6.1 0.00 0.10 0.10 86 1012.0
20200802220930 73 279 4.3 6.1 0.00 0.10 0.10 86 1012.0
20200802220424 73 237 3.5 6.1 0.00 0.10 0.10 88 1012.0
20200802215937 72 228 2.6 6.1 0.00 0.10 0.10 89 1012.0
20200802215426 72 216 3.5 6.1 0.00 0.10 0.10 88 1012.0
20200802214941 72 200 3.5 5.2 0.00 0.10 0.10 88 1012.1
20200802214430 72 196 3.5 5.2 0.00 0.10 0.10 87 1012.1
20200802213922 71 247 1.7 5.2 0.00 0.10 0.10 87 1012.1
20200802213430 71 255 2.6 3.5 0.00 0.10 0.10 88 1012.1
20200802212923 71 214 1.7 4.3 0.00 0.10 0.10 88 1012.1
20200802212434 71 257 2.6 4.3 0.00 0.10 0.10 88 1012.1
20200802211927 71 273 2.6 4.3 0.00 0.10 0.10 88 1012.0
20200802211435 70 250 2.6 4.3 0.00 0.10 0.10 88 1012.1
20200802210928 70 249 2.6 4.3 0.00 0.10 0.10 89 1012.1
20200802210438 69 225 1.7 3.5 0.00 0.10 0.10 89 1012.1
20200802205930 69 203 2.6 3.5 0.00 0.10 0.10 89 1012.1
20200802205424 69 190 1.7 4.3 0.00 0.10 0.10 90 1012.0
20200802204940 69 170 2.6 4.3 0.01 0.10 0.10 90 1012.1
20200802204430 68 185 2.6 4.3 0.04 0.10 0.10 90 1012.0
20200802203924 68 194 2.6 4.3 0.09 0.10 0.10 90 1011.9
20200802203430 68 209 2.6 3.5 0.10 0.10 0.10 91 1011.9
20200802202926 68 206 2.6 3.5 0.10 0.10 0.10 91 1011.9
20200802202440 67 188 1.7 2.6 0.10 0.10 0.10 91 1012.1
20200802201934 67 127 1.7 2.6 0.10 0.10 0.10 90 1012.0
20200802201442 67 117 0.9 2.6 0.10 0.10 0.10 90 1012.0
20200802200937 67 117 0.9 2.6 0.10 0.10 0.10 89 1012.0
20200802200427 66 138 0.9 2.6 0.10 0.10 0.10 89 1011.9
20200802195922 66 184 1.7 3.5 0.10 0.10 0.10 88 1011.9
20200802195429 67 184 1.7 6.1 0.10 0.10 0.10 86 1011.8
20200802194927 68 196 3.5 13.0 0.09 0.09 0.09 84 1011.8
20200802194435 69 283 7.0 13.0 0.06 0.06 0.07 79 1011.5
20200802193929 71 296 7.0 15.6 0.01 0.01 0.01 77 1011.2
20200802193439 70 263 10.4 17.4 0.00 0.00 0.00 76 1011.2
20200802192935 71 267 9.6 20.9 0.00 0.00 0.00 75 1011.7
20200802192422 75 271 8.7 20.9 0.00 0.00 0.00 73 1011.4
20200802191940 79 272 5.2 8.7 0.00 0.00 0.00 67 1011.2
20200802191434 79 279 4.3 8.7 0.00 0.00 0.00 64 1011.1
20200802190933 80 256 5.2 7.8 0.00 0.00 0.00 64 1010.9
20200802190442 80 267 4.3 7.8 0.00 0.00 0.00 62 1010.8
20200802185935 80 279 2.6 10.4 0.00 0.00 0.00 66 1011.1
20200802185441 80 261 2.6 7.0 0.00 0.00 0.00 67 1011.1
20200802184935 79 197 3.5 8.7 0.00 0.00 0.00 66 1011.1
20200802184443 79 209 3.5 8.7 0.00 0.00 0.00 67 1011.2
20200802183935 79 222 3.5 7.8 0.00 0.00 0.00 66 1011.3
20200802183426 78 224 5.2 7.8 0.00 0.00 0.00 68 1011.4
20200802182940 77 205 4.3 6.1 0.00 0.00 0.00 68 1011.4
20200802182433 77 273 3.5 5.2 0.00 0.00 0.00 67 1011.6
20200802181931 77 259 3.5 7.0 0.00 0.00 0.00 68 1011.5
20200802181440 77 265 5.2 9.6 0.00 0.00 0.00 66 1011.5
20200802180935 78 277 5.2 10.4 0.00 0.00 0.00 65 1011.5
20200802180425 77 288 6.1 10.4 0.00 0.00 0.00 67 1011.6
20200802175938 77 272 6.1 9.6 0.00 0.00 0.00 68 1011.6
20200802175429 77 254 4.3 9.6 0.00 0.00 0.00 68 1011.6
20200802174927 77 281 5.2 10.4 0.00 0.00 0.00 69 1011.6
20200802174437 77 268 6.1 12.2 0.00 0.00 0.00 69 1011.5
20200802173935 77 285 7.8 12.2 0.00 0.00 0.00 68 1011.6
20200802173442 77 279 6.1 11.3 0.00 0.00 0.00 68 1011.6
20200802172934 78 284 6.1 9.6 0.00 0.00 0.00 67 1011.6
20200802172425 78 278 5.2 10.4 0.00 0.00 0.00 65 1011.7
20200802171921 78 246 6.1 10.4 0.00 0.00 0.00 66 1011.6
20200802171433 78 266 6.1 9.6 0.00 0.00 0.00 65 1011.6
20200802170931 79 272 5.2 8.7 0.00 0.00 0.00 65 1011.6
20200802170437 80 289 5.2 8.7 0.00 0.00 0.00 66 1011.7
20200802165931 79 254 6.1 11.3 0.00 0.00 0.00 64 1011.7
20200802165442 79 265 7.0 11.3 0.00 0.00 0.00 65 1011.7
20200802164937 79 263 6.1 10.4 0.00 0.00 0.00 67 1011.7
20200802164430 79 236 5.2 7.8 0.00 0.00 0.00 66 1011.7
20200802163929 80 257 5.2 9.6 0.00 0.00 0.00 70 1011.6
20200802163442 79 261 4.3 9.6 0.00 0.00 0.00 67 1011.7
20200802162935 79 286 5.2 9.6 0.00 0.00 0.00 68 1011.6
20200802162425 79 286 7.0 9.6 0.00 0.00 0.00 67 1011.7
20200802161940 78 279 7.0 9.6 0.00 0.00 0.00 67 1011.7
20200802161433 79 283 5.2 7.8 0.00 0.00 0.00 68 1011.7
20200802160927 79 277 5.2 9.6 0.00 0.00 0.00 70 1011.7
20200802160435 78 262 5.2 9.6 0.00 0.00 0.00 70 1011.7
20200802155930 78 292 6.1 10.4 0.00 0.00 0.00 69 1011.7
20200802155423 78 266 7.0 10.4 0.00 0.00 0.00 68 1011.6
20200802154938 78 245 5.2 7.8 0.00 0.00 0.00 70 1011.6
20200802154430 78 261 4.3 7.8 0.00 0.00 0.00 69 1011.6
20200802153927 78 261 5.2 8.7 0.00 0.00 0.00 70 1011.6
20200802153440 77 273 5.2 8.7 0.00 0.00 0.00 71 1011.7
20200802152935 77 270 6.1 8.7 0.00 0.00 0.00 70 1011.6
20200802152428 77 278 4.3 7.0 0.00 0.00 0.00 70 1011.5
20200802151927 77 306 4.3 7.8 0.00 0.00 0.00 71 1011.5
20200802151436 76 288 3.5 8.7 0.00 0.00 0.00 74 1011.5
20200802150933 76 230 5.2 8.7 0.00 0.00 0.00 72 1011.5
20200802150424 76 271 4.3 6.1 0.00 0.00 0.00 74 1011.5
20200802145922 76 249 2.6 7.0 0.00 0.00 0.00 74 1011.4
20200802145434 75 201 4.3 7.0 0.00 0.00 0.00 76 1011.5
20200802144929 75 271 2.6 6.1 0.00 0.00 0.00 77 1011.6
20200802144434 75 255 2.6 6.1 0.00 0.00 0.00 78 1011.6
20200802143929 74 325 3.5 6.1 0.00 0.00 0.00 76 1011.5